Вернуться в каталог

COSMOS 2251 DEB

АктивенLEO
NORAD 33938·DEBRIS·🇷🇺 Russia

Запущен Jun 16, 1993 с Plesetsk Cosmodrome

Loading…

Ближайшие Пролёты (ближайшие 24 часа)

TLE

СвежийSource: Space-Track

Эпоха: Sep 14, 2026, 11:09 UTC

1 33938U 93036ET  26257.46521142  .00000960  00000-0  26751-3 0  9993
2 33938  74.0445  51.9758 0015718  66.8337 313.1244 14.47603441923895

Отслеживайте COSMOS 2251 DEB в реальном времени с AllMySat

Download on the App Store